Location: Bílinka
(49.3579°N, 14.3767°E)
Time: 01:02:14
(UTC+00:00)

Cosmos 2360 Rocket - Pass Details

Date: 28 January 2023
Orbit: 832 x 846 km, 71.0° (Epoch: 30 March)

Event Time Altitude Azimuth Distance (km) Brightness Sun altitude
Rises 17:54:56 0° 166° (SSE) 3,371 5.2 -20.0°
Reaches altitude 10° 17:57:48 10° 153° (SSE) 2,444 4.4 -20.5°
Enters shadow 17:58:26 13° 148° (SSE) 2,269 4.2 -20.6°
